GW4049 Weather Reports


time (UTC)temp
C
wind
direction
speed
KPH
gust
KPH
rain 1hr
cm
rain 24hr
cm
rain mn
cm
humidity
%
barometer
mb
20260507075833 0 22 19.3 30.6 0.00 0.00 0.00 56 1023.7
20260507075329 0 264 4.8 14.5 0.00 0.00 0.00 56 1023.1
20260507074826 0 226 12.9 16.1 0.00 0.00 0.00 51 1023.1
20260507074323 0 218 17.7 25.7 0.00 0.00 0.00 46 1023.2
20260507073820 0 227 6.4 25.7 0.00 0.00 0.00 48 1023.1
20260507073317 0 288 8.0 24.1 0.00 0.00 0.00 51 1023.2
20260507072814 0 195 11.3 33.8 0.00 0.00 0.00 49 1023.2
20260507072312 0 262 14.5 22.5 0.00 0.00 0.00 50 1023.3
20260507071809 -1 231 4.8 11.3 0.00 0.00 0.00 51 1023.3
20260507071305 -1 249 9.7 16.1 0.00 0.00 0.00 53 1023.5
20260507070802 -1 220 6.4 11.3 0.00 0.00 0.00 49 1023.5
20260507070259 -1 227 6.4 17.7 0.00 0.00 0.00 54 1023.3
20260507065756 0 228 4.8 14.5 0.00 0.00 0.00 50 1023.6
20260507065252 -2 228 11.3 12.9 0.00 0.00 0.00 54 1023.3
20260507064750 -1 41 1.6 9.7 0.00 0.00 0.00 55 1023.3
20260507064249 -1 270 1.6 9.7 0.00 0.00 0.00 51 1023.2
20260507063746 -2 259 8.0 11.3 0.00 0.00 0.00 54 1023.6
20260507063242 -1 200 4.8 20.9 0.00 0.00 0.00 56 1023.3
20260507062739 -1 239 11.3 16.1 0.00 0.00 0.00 56 1023.3
20260507062237 -1 230 4.8 16.1 0.00 0.00 0.00 58 1023.2
20260507061735 -1 265 11.3 12.9 0.00 0.00 0.00 55 1023.2
20260507061232 -1 243 14.5 22.5 0.00 0.00 0.00 57 1023.1
20260507060730 -1 264 12.9 27.4 0.00 0.00 0.00 58 1022.9
20260507060227 -2 253 16.1 24.1 0.00 0.00 0.00 56 1022.9
20260507055723 -1 235 12.9 30.6 0.00 0.00 0.00 56 1022.8
20260507055218 -2 129 16.1 33.8 0.00 0.00 0.00 59 1022.9
20260507054714 -1 268 4.8 24.1 0.00 0.00 0.00 57 1023.1
20260507054212 -1 284 14.5 20.9 0.00 0.00 0.00 54 1022.7
20260507053709 -1 292 12.9 22.5 0.00 0.00 0.00 55 1022.8
20260507053207 -1 222 19.3 30.6 0.00 0.00 0.00 56 1022.7
20260507052706 -1 174 12.9 25.7 0.00 0.00 0.00 58 1022.9
20260507052201 -2 248 20.9 35.4 0.00 0.00 0.00 59 1022.7
20260507051700 -2 293 4.8 27.4 0.00 0.00 0.00 60 1022.8
20260507051155 -2 192 17.7 33.8 0.00 0.00 0.00 57 1022.7
20260507050652 -2 277 24.1 43.5 0.00 0.00 0.00 57 1022.8
20260507050149 -2 288 12.9 33.8 0.00 0.00 0.00 59 1022.5
20260507045646 -2 347 9.7 37.0 0.00 0.00 0.00 59 1022.5
20260507045143 -2 213 14.5 38.6 0.00 0.00 0.00 59 1022.4
20260507044640 -2 237 29.0 37.0 0.00 0.00 0.00 60 1022.4
20260507044137 -2 192 32.2 51.5 0.00 0.00 0.00 58 1022.7
20260507043633 -2 270 8.0 30.6 0.00 0.00 0.00 64 1022.1
20260507043130 -2 327 11.3 35.4 0.00 0.00 0.00 62 1022.0
20260507042626 -2 348 12.9 27.4 0.00 0.00 0.00 61 1022.3
20260507042121 -2 64 11.3 17.7 0.00 0.00 0.00 62 1021.9
20260507041618 -2 220 9.7 14.5 0.00 0.00 0.00 65 1022.0
20260507041115 -2 235 12.9 20.9 0.00 0.00 0.00 64 1022.0
20260507040612 -2 249 11.3 24.1 0.00 0.00 0.00 62 1021.9
20260507040108 -2 321 1.6 24.1 0.00 0.00 0.00 69 1022.0
20260507035604 -2 273 4.8 24.1 0.00 0.00 0.00 68 1021.6
20260507035100 -2 248 17.7 29.0 0.00 0.00 0.00 65 1022.0
20260507034557 -2 218 17.7 24.1 0.00 0.00 0.00 70 1021.8
20260507034055 -2 288 12.9 25.7 0.00 0.00 0.00 70 1021.5
20260507033553 -2 239 9.7 27.4 0.00 0.00 0.00 69 1021.9
20260507033050 -2 312 12.9 27.4 0.00 0.00 0.00 71 1022.0
20260507032547 -2 187 22.5 35.4 0.00 0.00 0.00 68 1021.8
20260507032043 -2 284 20.9 38.6 0.00 0.00 0.00 69 1021.8
20260507031540 -2 247 9.7 25.7 0.00 0.00 0.00 72 1021.8
20260507031037 -2 250 24.1 33.8 0.00 0.00 0.00 73 1022.0
20260507030534 -2 235 9.7 38.6 0.00 0.00 0.00 74 1021.5
20260507030032 -2 211 14.5 29.0 0.00 0.00 0.00 74 1021.8
20260507025528 -2 247 20.9 33.8 0.00 0.00 0.00 75 1021.5
20260507025026 -2 264 19.3 27.4 0.00 0.00 0.00 75 1021.6
20260507024523 -2 274 6.4 24.1 0.00 0.00 0.00 75 1021.5
20260507024020 -2 194 12.9 24.1 0.00 0.00 0.00 77 1021.5
20260507023516 -2 353 9.7 22.5 0.00 0.00 0.00 78 1021.4
20260507023014 -3 85 12.9 20.9 0.00 0.00 0.00 80 1021.4
20260507022510 -3 239 3.2 4.8 0.00 0.00 0.00 82 1021.5
20260507022006 -2 264 4.8 14.5 0.00 0.00 0.00 84 1021.6
20260507021502 -2 249 0.0 16.1 0.00 0.00 0.00 82 1021.2
20260507020959 -2 266 1.6 12.9 0.00 0.00 0.00 83 1021.2
20260507020456 -2 231 4.8 25.7 0.00 0.00 0.00 79 1021.5
20260507015952 -2 300 4.8 12.9 0.00 0.00 0.00 85 1021.5
20260507015451 -2 275 4.8 14.5 0.00 0.00 0.00 79 1021.5
20260507014948 -2 287 1.6 14.5 0.00 0.00 0.00 82 1021.2
20260507014444 -2 313 11.3 14.5 0.00 0.00 0.00 86 1021.5
20260507013940 -2 257 1.6 4.8 0.00 0.00 0.00 84 1021.8
20260507013437 -2 260 3.2 3.2 0.00 0.00 0.00 84 1021.5
20260507012935 -1 243 3.2 12.9 0.00 0.00 0.00 83 1021.4
20260507012431 -1 276 1.6 11.3 0.00 0.00 0.00 85 1021.5
20260507011922 -1 260 3.2 12.9 0.00 0.00 0.00 85 1021.4
20260507011419 -1 259 3.2 9.7 0.00 0.00 0.00 84 1021.4
20260507010913 -1 269 3.2 12.9 0.00 0.00 0.00 86 1021.5
20260507010409 -1 328 8.0 16.1 0.00 0.00 0.00 84 1021.4
20260507005906 -1 253 0.0 16.1 0.00 0.00 0.00 84 1021.4
20260507005403 -1 246 8.0 12.9 0.00 0.00 0.00 83 1021.4
20260507004859 -1 338 8.0 14.5 0.00 0.00 0.00 87 1021.4
20260507004356 -1 354 14.5 17.7 0.00 0.00 0.00 84 1021.4
20260507003854 -1 290 3.2 9.7 0.00 0.00 0.00 84 1021.2
20260507003349 -1 251 1.6 12.9 0.00 0.00 0.00 84 1021.5
20260507002844 -1 290 6.4 16.1 0.00 0.00 0.00 83 1021.4
20260507002340 -1 257 3.2 17.7 0.00 0.00 0.00 89 1021.4
20260507001838 0 250 1.6 3.2 0.00 0.00 0.00 89 1021.2
20260507001335 -1 268 1.6 6.4 0.00 0.00 0.00 90 1021.4
20260507000831 -1 348 11.3 14.5 0.00 0.00 0.00 90 1021.1
20260507000328 -1 345 9.7 20.9 0.00 0.00 0.00 92 1021.2
20260506235823 0 240 3.2 4.8 0.00 0.00 0.00 89 1021.2
20260506235320 0 300 9.7 12.9 0.00 0.00 0.00 90 1021.1
20260506234816 -1 245 8.0 11.3 0.00 0.00 0.00 88 1021.1
20260506234314 0 290 0.0 0.0 0.00 0.00 0.00 93 1020.8
20260506233811 -1 290 0.0 0.0 0.00 0.00 0.00 88 1021.0
20260506233307 0 279 0.0 0.0 0.00 0.00 0.00 91 1021.0
20260506232804 -1 286 0.0 0.0 0.00 0.00 0.00 91 1021.0
20260506232259 0 280 0.0 0.0 0.00 0.00 0.00 95 1020.7
20260506231757 0 277 0.0 0.0 0.00 0.00 0.00 93 1020.8
20260506231255 0 250 0.0 0.0 0.00 0.00 0.00 94 1020.6
20260506230752 0 207 0.0 0.0 0.00 0.00 0.00 90 1020.8
20260506230248 0 265 0.0 0.0 0.00 0.00 0.00 96 1020.8
20260506225745 0 275 0.0 0.0 0.00 0.00 0.00 97 1021.0
20260506225242 0 269 0.0 0.0 0.00 0.00 0.00 97 1020.8
20260506224733 0 251 0.0 0.0 0.00 0.00 0.00 95 1020.7
20260506224231 0 259 0.0 0.0 0.00 0.00 0.00 95 1020.7
20260506223727 0 254 0.0 0.0 0.00 0.00 0.00 95 1020.6
20260506223222 0 243 0.0 0.0 0.00 0.00 0.00 93 1020.6
20260506222719 -1 260 0.0 0.0 0.00 0.00 0.00 98 1020.8
20260506222214 -3 245 0.0 0.0 0.00 0.00 0.00 97 1020.8
20260506221712 -3 246 0.0 0.0 0.00 0.00 0.00 98 1021.0
20260506221210 -2 246 0.0 0.0 0.00 0.00 0.00 97 1021.0
20260506220707 -2 246 0.0 0.0 0.00 0.00 0.00 98 1021.0
20260506220202 -2 247 0.0 0.0 0.00 0.00 0.00 97 1020.7
20260506215659 -2 247 0.0 0.0 0.00 0.00 0.00 97 1021.0
20260506215154 -2 248 0.0 0.0 0.00 0.00 0.00 97 1020.8
20260506214651 -2 248 0.0 0.0 0.00 0.00 0.00 96 1021.0
20260506214148 -1 248 0.0 0.0 0.00 0.00 0.00 94 1020.8
20260506213647 -1 258 0.0 0.0 0.00 0.00 0.00 96 1021.1
20260506213144 -1 284 0.0 0.0 0.00 0.00 0.00 98 1021.0
20260506212641 -1 285 0.0 0.0 0.00 0.00 0.00 97 1021.0
20260506212135 -1 285 0.0 0.0 0.00 0.00 0.00 98 1021.1
20260506211632 -2 284 0.0 0.0 0.00 0.00 0.00 97 1020.8
20260506211129 -1 283 0.0 0.0 0.00 0.00 0.00 96 1021.2
20260506210626 -2 278 0.0 0.0 0.00 0.00 0.00 94 1021.1
20260506210122 -1 274 0.0 0.0 0.00 0.00 0.00 96 1021.1
20260506205619 -2 288 0.0 0.0 0.00 0.00 0.00 98 1021.0
20260506205114 -2 290 0.0 0.0 0.00 0.00 0.00 97 1021.0
20260506204612 -2 289 0.0 0.0 0.00 0.00 0.00 97 1021.0
20260506204109 -2 290 0.0 0.0 0.00 0.00 0.00 97 1021.2
20260506203607 -2 289 0.0 0.0 0.00 0.00 0.00 97 1021.2
20260506203103 -3 289 0.0 0.0 0.00 0.00 0.00 96 1021.2
20260506202601 -2 289 0.0 0.0 0.00 0.00 0.00 97 1021.1
20260506202057 -3 289 0.0 0.0 0.00 0.00 0.00 97 1021.4
20260506201555 -3 289 0.0 0.0 0.00 0.00 0.00 97 1021.2
20260506201051 -3 289 0.0 0.0 0.00 0.00 0.00 96 1021.5
20260506200547 -4 289 0.0 0.0 0.00 0.00 0.00 97 1021.4
20260506200044 -3 289 0.0 0.0 0.00 0.00 0.00 96 1021.4
20260506195541 -4 289 0.0 0.0 0.00 0.00 0.00 95 1021.4
20260506195037 -3 289 0.0 0.0 0.00 0.00 0.00 96 1021.2
20260506194535 -4 289 0.0 0.0 0.00 0.00 0.00 97 1021.1
20260506194031 -5 290 0.0 0.0 0.00 0.00 0.00 96 1021.2
20260506193529 -5 290 0.0 0.0 0.00 0.00 0.00 96 1021.5
20260506193026 -4 290 0.0 0.0 0.00 0.00 0.00 97 1021.5
20260506192523 -4 289 0.0 0.0 0.00 0.00 0.00 97 1021.2
20260506192018 -5 290 0.0 0.0 0.00 0.00 0.00 96 1021.5
20260506191515 -5 290 0.0 0.0 0.00 0.00 0.00 97 1021.4
20260506191012 -5 290 0.0 0.0 0.00 0.00 0.00 97 1021.2
20260506190509 -5 290 0.0 0.0 0.00 0.00 0.00 97 1021.4
20260506190006 -5 290 0.0 0.0 0.00 0.00 0.00 96 1021.5
20260506185503 -5 290 0.0 0.0 0.00 0.00 0.00 97 1021.4
20260506184959 -5 290 0.0 0.0 0.00 0.00 0.00 97 1021.5
20260506184457 -5 290 0.0 0.0 0.00 0.00 0.00 97 1021.5
20260506183954 -5 290 0.0 0.0 0.00 0.00 0.00 97 1021.5
20260506183449 -4 290 0.0 0.0 0.00 0.00 0.00 98 1021.5
20260506182946 -4 290 0.0 0.0 0.00 0.00 0.00 98 1021.8
20260506182444 -5 290 0.0 0.0 0.00 0.00 0.00 98 1021.8
20260506181941 -4 290 0.0 0.0 0.00 0.00 0.00 97 1021.5
20260506181439 -4 290 0.0 0.0 0.00 0.00 0.00 98 1021.6
20260506180935 -4 290 0.0 0.0 0.00 0.00 0.00 98 1021.4
20260506180432 -5 290 0.0 0.0 0.00 0.00 0.00 97 1021.6
20260506175923 -5 290 0.0 0.0 0.00 0.00 0.00 98 1021.6
20260506175420 -5 290 0.0 0.0 0.00 0.00 0.00 98 1021.6
20260506174916 -4 290 0.0 0.0 0.00 0.00 0.00 98 1021.5
20260506174414 -5 290 0.0 0.0 0.00 0.00 0.00 98 1021.2
20260506173912 -5 290 0.0 0.0 0.00 0.00 0.00 98 1021.5
20260506173408 -5 290 0.0 0.0 0.00 0.00 0.00 98 1021.6
20260506172905 -5 290 0.0 0.0 0.00 0.00 0.00 98 1021.6
20260506172401 -5 290 0.0 0.0 0.00 0.00 0.00 98 1021.2
20260506171859 -5 290 0.0 0.0 0.00 0.00 0.00 97 1021.2
20260506171356 -5 290 0.0 0.0 0.00 0.00 0.00 97 1021.5
20260506170853 -6 290 0.0 0.0 0.00 0.00 0.00 97 1021.5
20260506170349 -6 290 0.0 0.0 0.00 0.00 0.00 97 1021.2
20260506165849 -6 291 0.0 0.0 0.00 0.00 0.00 97 1021.2
20260506165346 -6 291 0.0 0.0 0.00 0.00 0.00 97 1021.2
20260506164837 -6 291 0.0 0.0 0.00 0.00 0.00 97 1021.0
20260506164334 -6 291 0.0 0.0 0.00 0.00 0.00 97 1020.8
20260506163831 -6 291 0.0 0.0 0.00 0.00 0.00 97 1020.6
20260506163325 -6 291 0.0 0.0 0.00 0.00 0.00 97 1020.7
20260506162821 -5 290 0.0 0.0 0.00 0.00 0.00 97 1020.6
20260506162319 -6 291 0.0 0.0 0.00 0.00 0.00 97 1020.7
20260506161817 -6 291 0.0 0.0 0.00 0.00 0.00 97 1020.4
20260506161314 -5 291 0.0 0.0 0.00 0.00 0.00 97 1020.6
20260506160812 -5 291 0.0 0.0 0.00 0.00 0.00 98 1020.3
20260506160308 -5 291 0.0 0.0 0.00 0.00 0.00 98 1020.2
20260506155807 -5 291 0.0 0.0 0.00 0.00 0.00 97 1020.4
20260506155306 -5 291 0.0 0.0 0.00 0.00 0.00 97 1020.4
20260506153415 -6 291 0.0 0.0 0.00 0.00 0.00 97 1020.3
20260506152913 -6 291 0.0 0.0 0.00 0.00 0.00 97 1020.2
20260506152409 -6 291 0.0 0.0 0.00 0.00 0.00 97 1020.3
20260506151908 -6 291 0.0 0.0 0.00 0.00 0.00 97 1020.2
20260506151404 -6 291 0.0 0.0 0.00 0.00 0.00 97 1020.3
20260506150902 -6 291 0.0 0.0 0.00 0.00 0.00 97 1020.2
20260506150358 -6 291 0.0 0.0 0.00 0.00 0.00 97 1020.2
20260506145855 -6 291 0.0 0.0 0.00 0.00 0.00 97 1020.0
20260506145351 -6 291 0.0 0.0 0.00 0.00 0.00 97 1020.2
20260506144849 -6 291 0.0 0.0 0.00 0.00 0.00 97 1020.2
20260506144345 -7 291 0.0 0.0 0.00 0.00 0.00 97 1019.8
20260506143844 -6 291 0.0 0.0 0.00 0.00 0.00 97 1019.8
20260506143341 -7 291 0.0 0.0 0.00 0.00 0.00 97 1019.8
20260506142839 -7 291 0.0 0.0 0.00 0.00 0.00 97 1019.9
20260506142337 -7 291 0.0 0.0 0.00 0.00 0.00 97 1019.8
20260506141835 -7 291 0.0 0.0 0.00 0.00 0.00 97 1019.8
20260506141332 -7 290 0.0 0.0 0.00 0.00 0.00 97 1019.8
20260506140830 -6 290 0.0 0.0 0.00 0.00 0.00 97 1019.5
20260506140327 -6 290 0.0 0.0 0.00 0.00 0.00 97 1019.8
20260506135824 -6 290 0.0 0.0 0.00 0.00 0.00 97 1019.8
20260506135320 -7 290 0.0 0.0 0.00 0.00 0.00 97 1019.4
20260506134817 -7 290 0.0 0.0 0.00 0.00 0.00 97 1019.5
20260506134313 -7 290 0.0 0.0 0.00 0.00 0.00 97 1019.6
20260506133810 -7 290 0.0 0.0 0.00 0.00 0.00 96 1019.6
20260506133307 -7 290 0.0 0.0 0.00 0.00 0.00 96 1019.5
20260506132804 -7 290 0.0 0.0 0.00 0.00 0.00 96 1019.3
20260506132301 -7 290 0.0 0.0 0.00 0.00 0.00 96 1019.4
20260506131759 -7 290 0.0 0.0 0.00 0.00 0.00 96 1019.3
20260506131255 -7 290 0.0 0.0 0.00 0.00 0.00 96 1019.4
20260506130752 -7 290 0.0 0.0 0.00 0.00 0.00 96 1019.4
20260506130249 -7 290 0.0 0.0 0.00 0.00 0.00 96 1019.3
20260506125747 -7 290 0.0 0.0 0.00 0.00 0.00 96 1019.0
20260506125244 -7 290 0.0 0.0 0.00 0.00 0.00 96 1019.1
20260506124743 -7 290 0.0 0.0 0.00 0.00 0.00 96 1019.0
20260506124240 -7 290 0.0 0.0 0.00 0.00 0.00 96 1018.7
20260506123737 -7 290 0.0 0.0 0.00 0.00 0.00 96 1018.9
20260506123236 -7 290 0.0 0.0 0.00 0.00 0.00 96 1018.6
20260506122732 -7 290 0.0 0.0 0.00 0.00 0.00 96 1018.6
20260506122229 -7 290 0.0 0.0 0.00 0.00 0.00 96 1018.3
20260506121728 -7 290 0.0 0.0 0.00 0.00 0.00 96 1018.7
20260506121224 -7 290 0.0 0.0 0.00 0.00 0.00 96 1018.5
20260506120722 -7 290 0.0 0.0 0.00 0.00 0.00 96 1018.5
20260506120219 -7 290 0.0 0.0 0.00 0.00 0.00 96 1018.3
20260506115717 -7 290 0.0 0.0 0.00 0.00 0.00 96 1018.3
20260506115215 -7 290 0.0 0.0 0.00 0.00 0.00 96 1018.5
20260506114712 -7 290 0.0 0.0 0.00 0.00 0.00 96 1018.6
20260506114210 -7 290 0.0 0.0 0.00 0.00 0.00 96 1017.9
20260506113708 -7 290 0.0 0.0 0.00 0.00 0.00 96 1018.1
20260506113205 -7 290 0.0 0.0 0.00 0.00 0.00 96 1018.1
20260506112701 -7 290 0.0 0.0 0.00 0.00 0.00 96 1017.9
20260506112159 -7 290 0.0 0.0 0.00 0.00 0.00 96 1018.2
20260506111656 -7 290 0.0 0.0 0.00 0.00 0.00 96 1018.2
20260506111154 -7 290 0.0 0.0 0.00 0.00 0.00 96 1017.9
20260506110651 -7 290 0.0 0.0 0.00 0.00 0.00 96 1018.1
20260506110148 -7 290 0.0 0.0 0.00 0.00 0.00 96 1018.1
20260506105645 -7 290 0.0 0.0 0.00 0.00 0.00 96 1018.1
20260506105142 -7 290 0.0 0.0 0.00 0.00 0.00 96 1017.8
20260506104640 -7 290 0.0 0.0 0.00 0.00 0.00 96 1017.8
20260506104137 -7 290 0.0 0.0 0.00 0.00 0.00 96 1017.9
20260506103634 -7 290 0.0 0.0 0.00 0.00 0.00 96 1017.9
20260506103131 -7 290 0.0 0.0 0.00 0.00 0.00 96 1018.2
20260506102629 -7 290 0.0 0.0 0.00 0.00 0.00 96 1018.2
20260506102126 -7 290 0.0 0.0 0.00 0.00 0.00 96 1018.1
20260506101623 -7 290 0.0 0.0 0.00 0.00 0.00 97 1018.2
20260506101120 -7 290 0.0 0.0 0.00 0.00 0.00 97 1018.1
20260506100619 -7 290 0.0 0.0 0.00 0.00 0.00 97 1018.1
20260506100116 -7 290 0.0 0.0 0.00 0.00 0.00 97 1018.2
20260506095615 -7 290 0.0 0.0 0.00 0.00 0.00 97 1018.2
20260506095111 -7 290 0.0 0.0 0.00 0.00 0.00 97 1018.5
20260506094608 -7 290 0.0 0.0 0.00 0.00 0.00 97 1018.2
20260506094106 -7 290 0.0 0.0 0.00 0.00 0.00 97 1018.1
20260506093604 -7 290 0.0 0.0 0.00 0.00 0.00 97 1018.3
20260506093101 -7 290 0.0 0.0 0.00 0.00 0.00 97 1018.2
20260506092559 -7 290 0.0 0.0 0.00 0.00 0.00 97 1017.9
20260506092055 -7 290 0.0 0.0 0.00 0.00 0.00 97 1018.1
20260506091554 -7 290 0.0 0.0 0.00 0.00 0.00 97 1018.1
20260506091051 -6 290 0.0 0.0 0.00 0.00 0.00 97 1018.2
20260506090549 -6 290 0.0 0.0 0.00 0.00 0.00 97 1018.1
20260506090045 -6 290 0.0 0.0 0.00 0.00 0.00 97 1018.2
20260506085542 -6 290 0.0 0.0 0.00 0.00 0.00 97 1018.2
20260506085038 -6 290 0.0 0.0 0.00 0.00 0.00 97 1018.1
20260506084535 -6 290 0.0 0.0 0.00 0.00 0.00 97 1018.3
20260506084031 -6 290 0.0 0.0 0.00 0.00 0.00 97 1017.8
20260506083529 -6 290 0.0 0.0 0.00 0.00 0.00 97 1018.1
20260506083026 -6 290 0.0 0.0 0.00 0.00 0.00 97 1018.2
20260506082523 -6 290 0.0 0.0 0.00 0.00 0.00 97 1018.3
20260506082018 -6 290 0.0 0.0 0.00 0.00 0.00 97 1018.1
20260506081517 -6 290 0.0 0.0 0.00 0.00 0.00 97 1018.2
20260506081014 -6 290 0.0 0.0 0.00 0.00 0.00 97 1018.2
20260506080511 -6 290 0.0 0.0 0.00 0.00 0.00 97 1018.2